CW2157 Weather Reports


time (UTC)temp
F
wind
direction
speed
knots
gust
knots
rain 1hr
in
rain 24hr
in
rain mn
in
humidity
%
barometer
mb
20260505221205 76 358 10.4 17.4 0.00 0.00 0.00 50 1008.5
20260505220705 76 248 8.7 17.4 0.00 0.00 0.00 50 1008.5
20260505220205 76 170 8.7 13.0 0.00 0.00 0.00 49 1008.4
20260505215706 77 300 11.3 14.8 0.00 0.00 0.00 49 1008.4
20260505215205 77 247 8.7 12.2 0.00 0.00 0.00 49 1008.5
20260505214704 77 103 7.8 13.9 0.00 0.00 0.00 49 1008.5
20260505214205 77 198 8.7 15.6 0.00 0.00 0.00 49 1008.5
20260505213705 78 253 10.4 14.8 0.00 0.00 0.00 49 1008.4
20260505212704 78 305 10.4 15.6 0.00 0.00 0.00 47 1008.3
20260505212205 79 355 10.4 14.8 0.00 0.00 0.00 48 1008.3
20260505211705 79 11 9.6 19.1 0.00 0.00 0.00 47 1008.3
20260505211205 80 4 10.4 15.6 0.00 0.00 0.00 46 1008.2
20260505210705 80 196 11.3 18.2 0.00 0.00 0.00 45 1008.3
20260505210205 80 177 12.2 17.4 0.00 0.00 0.00 44 1008.2
20260505205705 80 253 12.2 20.9 0.00 0.00 0.00 46 1008.2
20260505205205 80 189 15.6 26.1 0.00 0.00 0.00 44 1008.2
20260505204705 80 185 13.9 19.1 0.00 0.00 0.00 46 1008.2
20260505204205 80 210 13.9 20.0 0.00 0.00 0.00 46 1008.3
20260505203705 80 274 14.8 20.0 0.00 0.00 0.00 45 1008.3
20260505203205 80 200 13.0 22.6 0.00 0.00 0.00 44 1008.2
20260505202205 80 0 12.2 17.4 0.00 0.00 0.00 49 1008.5
20260505201705 80 331 12.2 18.2 0.00 0.00 0.00 51 1008.5
20260505201205 80 350 12.2 21.7 0.00 0.00 0.00 47 1008.6
20260505200705 80 238 12.2 18.2 0.00 0.00 0.00 45 1008.6
20260505200205 80 353 13.9 20.0 0.00 0.00 0.00 50 1008.7
20260505195205 81 293 12.2 17.4 0.00 0.00 0.00 46 1008.7
20260505194705 81 9 13.9 24.3 0.00 0.00 0.00 46 1008.8
20260505194205 81 351 12.2 17.4 0.00 0.00 0.00 48 1008.8
20260505193705 80 275 12.2 17.4 0.00 0.00 0.00 49 1009.0
20260505193205 80 224 11.3 20.9 0.00 0.00 0.00 48 1009.1
20260505192704 80 215 10.4 19.1 0.00 0.00 0.00 47 1009.2
20260505192204 80 222 12.2 19.1 0.00 0.00 0.00 50 1009.3
20260505191705 80 4 11.3 17.4 0.00 0.00 0.00 47 1009.4
20260505191206 80 205 11.3 20.9 0.00 0.00 0.00 50 1009.4
20260505190205 80 156 10.4 18.2 0.00 0.00 0.00 48 1009.6
20260505185705 80 355 11.3 20.0 0.00 0.00 0.00 47 1009.6
20260505185205 80 32 12.2 17.4 0.00 0.00 0.00 49 1009.8
20260505184205 80 166 12.2 17.4 0.00 0.00 0.00 50 1009.9
20260505183705 80 204 9.6 17.4 0.00 0.00 0.00 50 1009.9
20260505183205 80 210 10.4 17.4 0.00 0.00 0.00 47 1010.0
20260505182705 80 310 12.2 18.2 0.00 0.00 0.00 48 1010.0
20260505182205 80 335 12.2 18.2 0.00 0.00 0.00 48 1010.0
20260505181705 80 243 13.0 19.1 0.00 0.00 0.00 49 1010.0
20260505180205 79 18 12.2 17.4 0.00 0.00 0.00 47 1010.4
20260505175704 79 187 12.2 18.2 0.00 0.00 0.00 48 1010.4
20260505175205 79 207 12.2 17.4 0.00 0.00 0.00 47 1010.4
20260505174205 79 195 11.3 17.4 0.00 0.00 0.00 50 1010.4
20260505173705 78 243 13.9 20.9 0.00 0.00 0.00 49 1010.4
20260505173205 78 215 12.2 17.4 0.00 0.00 0.00 50 1010.4
20260505172705 78 304 13.0 20.0 0.00 0.00 0.00 51 1010.5
20260505172205 78 17 11.3 17.4 0.00 0.00 0.00 50 1010.5
20260505170705 77 197 12.2 19.1 0.00 0.00 0.00 53 1010.8
20260505170205 77 36 11.3 17.4 0.00 0.00 0.00 51 1010.9
20260505165705 77 172 10.4 14.8 0.00 0.00 0.00 51 1011.0
20260505164205 77 314 11.3 17.4 0.00 0.00 0.00 50 1011.1
20260505163205 76 191 10.4 15.6 0.00 0.00 0.00 55 1011.3
20260505162205 75 224 8.7 13.9 0.00 0.00 0.00 54 1011.3
20260505161705 75 187 11.3 17.4 0.00 0.00 0.00 55 1011.4
20260505161205 75 195 10.4 15.6 0.00 0.00 0.00 53 1011.5
20260505160705 75 186 8.7 14.8 0.00 0.00 0.00 54 1011.5
20260505153205 74 192 10.4 15.6 0.00 0.00 0.00 57 1011.5
20260505152705 74 184 10.4 15.6 0.00 0.00 0.00 54 1011.5
20260505152204 73 222 11.3 15.6 0.00 0.00 0.00 55 1011.5
20260505150705 73 207 8.7 13.9 0.00 0.00 0.00 57 1011.6
20260505150205 73 212 10.4 17.4 0.00 0.00 0.00 55 1011.7
20260505140205 71 208 9.6 14.8 0.00 0.00 0.00 58 1011.5
20260505124704 70 232 9.6 15.6 0.00 0.00 0.00 59 1011.4
20260505124204 69 217 9.6 13.0 0.00 0.00 0.00 62 1011.3
20260505123205 68 230 10.4 14.8 0.00 0.00 0.00 62 1011.3
20260505122705 68 217 13.9 15.6 0.00 0.00 0.00 65 1011.3
20260505121705 67 221 12.2 15.6 0.00 0.00 0.00 64 1011.2
20260505121205 67 226 10.4 15.6 0.00 0.00 0.00 64 1011.2
20260505120705 66 228 12.2 15.6 0.00 0.00 0.00 65 1011.2
20260505120205 66 217 10.4 14.8 0.00 0.00 0.00 66 1011.1
20260505115705 66 213 10.4 15.6 0.00 0.00 0.00 66 1011.1
20260505115205 65 214 11.3 13.9 0.00 0.00 0.00 66 1011.1
20260505114705 65 208 10.4 14.8 0.00 0.00 0.00 67 1011.0
20260505114204 65 207 11.3 17.4 0.00 0.00 0.00 67 1011.0
20260505113704 64 201 11.3 17.4 0.00 0.00 0.00 67 1011.0
20260505112205 63 236 11.3 14.8 0.00 0.00 0.00 69 1010.8
20260505111705 63 230 12.2 17.4 0.00 0.00 0.00 70 1010.9
20260505102205 61 209 8.7 13.0 0.00 0.00 0.00 72 1010.6
20260505101705 61 204 6.1 13.0 0.00 0.00 0.00 72 1010.5
20260505101205 61 196 8.7 13.0 0.00 0.00 0.00 71 1010.5
20260505100705 61 210 8.7 13.9 0.00 0.00 0.00 71 1010.5
20260505100205 61 207 8.7 13.0 0.00 0.00 0.00 71 1010.4
20260505095705 61 201 8.7 13.0 0.00 0.00 0.00 71 1010.4
20260505095204 61 206 8.7 13.0 0.00 0.00 0.00 72 1010.4
20260505094704 61 213 8.7 11.3 0.00 0.00 0.00 71 1010.3
20260505094205 61 196 9.6 13.9 0.00 0.00 0.00 72 1010.4
20260505093705 61 184 5.2 10.4 0.00 0.00 0.00 73 1010.3
20260505093205 61 193 7.8 10.4 0.00 0.00 0.00 72 1010.4
20260505092705 61 205 7.0 12.2 0.00 0.00 0.00 73 1010.3
20260505092205 61 171 5.2 10.4 0.00 0.00 0.00 74 1010.3
20260505091705 61 187 7.0 12.2 0.00 0.00 0.00 74 1010.3
20260505091204 61 195 7.8 10.4 0.00 0.00 0.00 73 1010.2
20260505090705 62 204 6.1 11.3 0.00 0.00 0.00 73 1010.2
20260505090204 62 182 7.0 10.4 0.00 0.00 0.00 73 1010.2
20260505085705 62 196 7.0 10.4 0.00 0.00 0.00 73 1010.2
20260505085205 62 190 7.8 12.2 0.00 0.00 0.00 73 1010.2
20260505084705 62 208 7.8 12.2 0.00 0.00 0.00 73 1010.2
20260505084204 62 196 7.0 13.0 0.00 0.00 0.00 73 1010.2
20260505083205 61 210 7.8 12.2 0.00 0.00 0.00 74 1010.2
20260505082705 61 197 7.0 11.3 0.00 0.00 0.00 75 1010.2
20260505082205 61 191 8.7 13.9 0.00 0.00 0.00 75 1010.1
20260505081705 61 195 7.8 13.9 0.00 0.00 0.00 75 1010.2
20260505081205 61 190 7.8 12.2 0.00 0.00 0.00 74 1010.3
20260505080705 61 210 7.8 12.2 0.00 0.00 0.00 73 1010.2
20260505080205 61 198 8.7 13.0 0.00 0.00 0.00 73 1010.1
20260505075705 61 207 8.7 12.2 0.00 0.00 0.00 72 1010.1
20260505075205 61 204 8.7 14.8 0.00 0.00 0.00 72 1010.2
20260505073705 62 210 11.3 15.6 0.00 0.00 0.00 71 1010.1
20260505073205 62 205 10.4 15.6 0.00 0.00 0.00 70 1010.1
20260505072705 63 206 10.4 15.6 0.00 0.00 0.00 70 1010.1
20260505072205 63 209 10.4 14.8 0.00 0.00 0.00 70 1010.0
20260505070704 63 208 9.6 14.8 0.00 0.00 0.00 68 1010.1
20260505065704 64 199 8.7 14.8 0.00 0.00 0.00 67 1010.2
20260505065204 64 197 10.4 17.4 0.00 0.00 0.00 66 1010.1
20260505064705 64 212 11.3 15.6 0.00 0.00 0.00 66 1010.1
20260505064204 64 201 11.3 13.9 0.00 0.00 0.00 66 1010.1
20260505063705 64 205 10.4 17.4 0.00 0.00 0.00 66 1010.1
20260505063205 64 199 10.4 13.9 0.00 0.00 0.00 66 1010.1
20260505062705 64 197 11.3 21.7 0.00 0.00 0.00 66 1010.0
20260505062204 64 200 12.2 17.4 0.00 0.00 0.00 66 1010.0
20260505061704 64 207 11.3 18.2 0.00 0.00 0.00 66 1010.0
20260505061205 64 192 9.6 13.0 0.00 0.00 0.00 66 1010.0
20260505060704 64 192 11.3 17.4 0.00 0.00 0.00 67 1010.0
20260505060205 64 190 10.4 15.6 0.00 0.00 0.00 68 1010.0
20260505055705 64 196 9.6 13.9 0.00 0.00 0.00 68 1010.0
20260505055204 64 186 8.7 13.9 0.00 0.00 0.00 68 1010.0
20260505054704 64 195 9.6 12.2 0.00 0.00 0.00 69 1010.1
20260505054204 64 189 7.8 12.2 0.00 0.00 0.00 69 1010.0
20260505053704 64 192 8.7 11.3 0.00 0.00 0.00 70 1010.1
20260505052704 64 196 7.8 12.2 0.00 0.00 0.00 69 1010.1
20260505052204 64 200 8.7 13.0 0.00 0.00 0.00 69 1010.1
20260505051704 64 192 7.8 13.9 0.00 0.00 0.00 69 1010.1
20260505051205 64 182 7.8 13.9 0.00 0.00 0.00 69 1009.9
20260505050705 64 189 7.0 13.0 0.00 0.00 0.00 68 1010.0
20260505050204 64 198 8.7 13.0 0.00 0.00 0.00 67 1010.0
20260505041205 64 191 7.8 13.0 0.00 0.00 0.00 64 1009.9
20260505040705 64 200 7.8 11.3 0.00 0.00 0.00 65 1009.9
20260505035705 64 199 7.0 11.3 0.00 0.00 0.00 65 1009.9
20260505035205 64 203 7.8 13.0 0.00 0.00 0.00 65 1009.9
20260505034704 64 203 7.8 13.0 0.00 0.00 0.00 66 1009.8
20260505034205 65 201 7.0 11.3 0.00 0.00 0.00 66 1009.9
20260505033705 65 192 7.0 11.3 0.00 0.00 0.00 66 1009.8
20260505033205 65 194 7.0 10.4 0.00 0.00 0.00 66 1009.8
20260505032705 65 200 7.8 10.4 0.00 0.00 0.00 66 1009.9
20260505032204 65 201 7.8 13.0 0.00 0.00 0.00 65 1009.8
20260505031705 65 192 8.7 12.2 0.00 0.00 0.00 65 1009.8
20260505031205 65 188 7.8 12.2 0.00 0.00 0.00 65 1009.9
20260505025705 64 184 6.1 10.4 0.00 0.00 0.00 66 1009.6
20260505025205 64 176 5.2 10.4 0.00 0.00 0.00 67 1009.7
20260505024704 64 176 6.1 11.3 0.00 0.00 0.00 67 1009.7
20260505024204 65 191 6.1 12.2 0.00 0.00 0.00 66 1009.8
20260505023204 65 184 5.2 10.4 0.00 0.00 0.00 66 1009.8
20260505022204 65 185 6.1 10.4 0.00 0.00 0.00 66 1009.7
20260505021704 65 181 5.2 11.3 0.00 0.00 0.00 66 1009.7
20260505021205 65 181 7.0 10.4 0.00 0.00 0.00 66 1009.7
20260505020705 65 196 6.1 10.4 0.00 0.00 0.00 66 1009.8
20260505020204 65 185 6.1 12.2 0.00 0.00 0.00 65 1009.7
20260505015705 65 190 7.8 13.0 0.00 0.00 0.00 65 1009.8
20260505015204 65 198 7.8 13.0 0.00 0.00 0.00 65 1009.9
20260505014704 66 198 7.0 11.3 0.00 0.00 0.00 64 1009.8
20260505014204 66 186 7.8 11.3 0.00 0.00 0.00 63 1009.8
20260505013705 66 192 6.1 12.2 0.00 0.00 0.00 63 1009.8
20260505013204 66 206 6.1 15.6 0.00 0.00 0.00 61 1009.8
20260505012704 66 199 6.1 12.2 0.00 0.00 0.00 60 1009.8
20260505012204 66 198 7.0 14.8 0.00 0.00 0.00 59 1009.7
20260505011704 67 171 7.8 13.9 0.00 0.00 0.00 56 1009.6
20260505011205 67 186 7.0 10.4 0.00 0.00 0.00 55 1009.4
20260505010205 67 171 5.2 12.2 0.00 0.00 0.00 53 1009.4
20260505005705 67 186 6.1 12.2 0.00 0.00 0.00 54 1009.2
20260505005204 67 193 6.1 13.0 0.00 0.00 0.00 54 1009.2
20260505004704 67 193 6.1 10.4 0.00 0.00 0.00 54 1009.2
20260505004204 67 194 5.2 7.8 0.00 0.00 0.00 54 1009.2
20260505003704 67 188 4.3 7.8 0.00 0.00 0.00 53 1009.1
20260505003205 67 191 3.5 7.8 0.00 0.00 0.00 54 1009.2
20260505002204 67 193 4.3 6.1 0.00 0.00 0.00 54 1009.2
20260505001705 68 190 4.3 7.8 0.00 0.00 0.00 52 1009.2
20260505001204 68 185 3.5 6.1 0.00 0.00 0.00 54 1009.2
20260505000705 68 190 3.5 6.1 0.00 0.00 0.00 52 1009.2
20260505000205 68 201 5.2 8.7 0.00 0.00 0.00 53 1009.2
20260504235205 68 200 5.2 10.4 0.00 0.00 0.00 51 1009.2
20260504234705 68 182 6.1 8.7 0.00 0.00 0.00 51 1009.2
20260504234204 69 205 7.0 12.2 0.00 0.00 0.00 53 1009.2
20260504233704 69 209 7.0 10.4 0.00 0.00 0.00 54 1009.2
20260504232205 69 204 7.8 12.2 0.00 0.00 0.00 50 1009.1
20260504231704 70 195 7.8 13.9 0.00 0.00 0.00 48 1009.0
20260504230205 70 181 6.1 13.0 0.00 0.00 0.00 47 1009.0
20260504225705 70 183 7.8 13.9 0.00 0.00 0.00 47 1009.1
20260504225204 70 190 8.7 13.9 0.00 0.00 0.00 46 1009.0
20260504224204 70 195 6.1 15.6 0.00 0.00 0.00 45 1009.0
20260504223705 70 170 8.7 17.4 0.00 0.00 0.00 43 1009.0
20260504223204 70 198 7.8 13.9 0.00 0.00 0.00 44 1008.9
20260504222704 70 192 7.8 13.0 0.00 0.00 0.00 43 1009.0
20260504222204 71 163 8.7 14.8 0.00 0.00 0.00 43 1009.0